[[{"header":{"parameterUnit":"m.s-1","parameterCategory":1,"la1":30.2991,"la2":30.254,"lo1":-89.0895,"lo2":-89.0444,"dy":0.0017,"dx":0.0017,"nx":28,"ny":28,"refTime":"2024-12-26T03:00:00:Z","depth":0,"parameterNumber":2,"parameterNumberName":"U-component_of_WINDS"},"data":[0,0,0,0,0,0,0,0,0,0,0,0,0,0,0,0,0,0,0,0,0,0,0,0,0,0,0,0,0,0,0,0,0,0,0,0,0,0,0,0,0,0,0,0,0,0,0,0,0,0,0,0,0,0,0,0,0,0,-6.105,-6.105,0,-6.1068,-6.1068,-6.1068,-6.0901,-6.0897,-6.0892,-6.0888,-6.0908,-6.0913,-6.0918,0,0,0,0,0,0,0,0,0,0,0,0,0,-6.0875,-6.0879,-6.105,-6.105,-6.105,-6.1068,-6.1068,-6.1068,-6.0902,-6.0896,-6.0891,-6.0885,-6.0907,-6.0912,-6.0918,0,0,0,0,0,0,0,0,0,0,0,0,0,-6.0928,-6.088,-6.105,-6.0969,-6.0962,-6.1068,-6.1068,-6.1068,-6.0903,-6.0896,-6.0889,-6.0883,-6.0905,-6.0912,-6.0919,-6.1103,0,0,-6.0941,-6.0944,0,0,0,0,0,0,0,0,-6.0925,-6.0934,-6.0981,-6.0975,-6.0967,-6.0975,-6.1013,-6.108,-6.0905,-6.0926,-6.0887,-6.0879,-6.0936,-6.094,-6.0959,-6.1104,-6.1105,-6.0942,-6.0946,-6.0949,-6.0951,0,0,0,0,0,0,0,-6.0921,-6.0933,-6.1057,-6.0982,-6.0974,-6.0933,-6.0933,-6.1025,-6.097,-6.0923,-6.0911,-6.0916,-6.0931,-6.0952,-6.0958,-6.1105,-6.0942,-6.0948,-6.0953,-6.0955,-6.1403,-6.141,0,0,0,0,0,0,-6.0928,-6.0931,-6.1056,-6.1057,-6.0929,-6.0942,-6.0942,-6.098,-6.0968,-6.096,-6.0922,-6.0908,-6.0943,-6.095,-6.0958,-6.1173,-6.0949,-6.0956,-6.096,-6.1395,-6.1405,-6.1413,0,0,0,0,0,0,-6.0925,-6.0941,-6.1056,-6.0991,-6.1002,-6.0953,-6.0996,-6.0984,-6.1005,-6.0967,-6.0956,-6.0953,-6.0938,-6.0948,-6.1068,-6.1172,-6.0959,-6.0966,-6.1387,-6.1398,-6.1409,-6.1605,0,0,0,0,0,0,-6.0921,-6.0941,-6.1009,-6.0994,-6.1006,-6.1165,-6.1003,-6.0989,-6.1017,-6.1,-6.0994,-6.0986,-6.0933,-6.1058,-6.1076,-6.1178,-6.0972,-6.1377,-6.1392,-6.1405,-6.1589,-6.1622,-6.165,0,0,0,0,0,-6.0915,-6.1064,-6.1014,-6.103,-6.1091,-6.1171,-6.1178,-6.1114,-6.1027,-6.1096,-6.1071,-6.0986,-6.1158,-6.1072,-6.109,-6.1196,-6.137,-6.1388,-6.1404,-6.1576,-6.1616,-6.1649,0,0,0,0,0,0,-6.1094,-6.1061,-6.1004,-6.1152,-6.1166,-6.1143,-6.1227,-6.1158,-6.1197,-6.1179,-6.1098,-6.1098,-6.1232,-6.1226,-6.1131,-6.1375,-6.1249,-6.127,-6.1373,-6.1411,-6.1441,-6.1439,-6.0978,0,0,0,0,0,-6.115,-6.1217,-6.1185,-6.1319,-6.1329,-6.1278,-6.131,-6.126,-6.127,-6.1275,-6.126,-6.1275,-6.1331,-6.1371,-6.1421,-6.1588,-6.1585,-6.167,-6.1701,-6.1726,-6.1745,-6.1834,-6.1872,-6.1468,-6.1468,-6.1468,0,0,-6.1268,-6.1258,-6.1305,-6.1355,-6.1359,-6.1432,-6.1283,-6.1366,-6.1419,-6.1288,-6.14,-6.139,-6.1401,-6.1546,-6.1609,-6.1545,-6.1856,-6.1747,-6.1767,-6.1773,-6.1855,-6.1894,-6.1928,-6.148,-6.1478,-6.1476,0,0,-6.1519,-6.1518,-6.163,-6.1638,-6.1646,-6.1612,-6.1639,-6.1627,-6.1615,-6.1727,-6.163,-6.1693,-6.1793,-6.1805,-6.1825,-6.2083,-6.2007,-6.2102,-6.226,-6.2348,-6.238,-6.2407,-6.25,-6.2535,-6.2122,-6.2122,-6.2123,0,-6.1664,-6.1768,-6.1696,-6.1786,-6.1811,-6.1696,-6.181,-6.1821,-6.1846,-6.1867,-6.1795,-6.1919,-6.1918,-6.2065,-6.2128,-6.2148,-6.2177,-6.2102,-6.2381,-6.2408,-6.2433,-6.2521,-6.2556,-6.2134,-6.2132,-6.2131,-6.213,0,-6.1946,-6.202,-6.211,-6.2137,-6.2173,-6.2274,-6.2219,-6.2264,-6.2211,-6.2185,-6.2301,-6.2296,-6.2345,-6.2376,-6.2325,-6.2516,-6.2476,-6.2394,-6.2266,-6.2484,-6.2565,-6.2598,-6.215,-6.2146,-6.2143,-6.214,0,0,-6.2308,-6.2296,-6.233,-6.2342,-6.2344,-6.2401,-6.2498,-6.2544,-6.2585,-6.2607,-6.2687,-6.2775,-6.27,-6.2722,-6.2672,-6.2749,-6.2956,-6.2657,-6.2656,-6.2713,-6.3168,-6.3229,-6.3269,-6.2906,-6.2912,-6.2917,-6.3167,0,-6.2553,-6.2716,-6.2656,-6.2825,-6.2893,-6.2786,-6.2871,-6.2883,-6.2861,-6.2917,-6.2893,-6.2958,-6.2853,-6.2866,-6.2937,-6.2916,-6.3046,-6.2897,-6.298,-6.2984,-6.298,-6.3311,-6.3376,-6.3612,-6.3198,-6.3203,-6.3207,0,-6.2859,-6.2894,-6.307,-6.3062,-6.3088,-6.3166,-6.3204,-6.3259,-6.3271,-6.325,-6.3276,-6.321,-6.3306,-6.3179,-6.3311,-6.3211,-6.3242,-6.3237,-6.3244,-6.3249,-6.3108,-6.3326,-6.3686,-6.3722,-6.3256,-6.3252,-6.3249,0,-6.3106,-6.3197,-6.3314,-6.3327,-6.3321,-6.3378,-6.3378,-6.3383,-6.3416,-6.3451,-6.3471,-6.3517,-6.3542,-6.358,-6.3529,-6.3441,-6.3669,-6.3537,-6.3655,-6.3657,-6.3707,-6.3705,-6.4078,-6.3728,-6.3728,-6.3727,-6.3726,0,-6.3385,-6.3497,-6.3425,-6.3497,-6.362,-6.3551,-6.3674,-6.3662,-6.3668,-6.3737,-6.3648,-6.3715,-6.3643,-6.3704,-6.3664,-6.378,-6.3792,-6.3779,-6.3767,-6.3787,-6.3789,-6.3805,-6.3788,-6.3736,-6.3734,-6.3732,-6.3731,0,-6.3681,-6.3637,-6.3758,-6.3743,-6.3742,-6.3833,-6.382,-6.3887,-6.386,-6.3949,-6.3966,-6.3924,-6.3991,-6.3944,-6.401,-6.3984,-6.4137,-6.4102,-6.4133,-6.4123,-6.4243,-6.4233,-6.464,-6.4691,-6.4309,-6.4313,-6.4316,0,-6.3862,-6.3945,-6.394,-6.3979,-6.3985,-6.405,-6.4083,-6.4019,-6.4058,-6.4079,-6.4144,-6.4203,-6.4247,-6.4359,-6.4335,-6.4387,-6.4352,-6.4492,-6.4359,-6.4377,-6.4355,-6.435,-6.4359,-6.4519,-6.4523,-6.4527,-6.453,0,-6.4187,-6.4162,-6.4213,-6.4258,-6.43,-6.4332,-6.4357,-6.4395,-6.433,-6.4378,-6.4445,-6.448,-6.4548,-6.4609,-6.4652,-6.4652,-6.4582,-6.4572,-6.4602,-6.4622,-6.4637,-6.4631,-6.4205,-6.4562,-6.4559,-6.4557,-6.4555,-6.4554,-6.443,-6.45,-6.4508,-6.4568,-6.4581,-6.4607,-6.4669,-6.4651,-6.4705,-6.4756,-6.4715,-6.4796,-6.4808,-6.4858,-6.4868,-6.4931,-6.4874,-6.4918,-6.4929,-6.494,-6.4957,-6.4628,-6.4939,-6.4938,-6.4937,-6.4936,-6.4936,0,-6.4751,-6.4751,-6.4808,-6.4846,-6.4894,-6.4823,-6.4848,-6.4893,-6.4965,-6.4982,-6.5027,-6.5106,-6.5165,-6.5147,-6.52,-6.5254,-6.5223,-6.527,-6.5265,-6.5267,-6.5005,-6.4974,-6.5295,-6.5295,-6.5294,-6.5294,-6.5294,-6.5294,-6.4924,-6.5039,-6.5015,-6.5136,-6.5135,-6.5213,-6.5234,-6.5258,-6.5271,-6.5363,-6.5411,-6.5399,-6.5403,-6.5455,-6.5507,-6.55,-6.5524,-6.5583,-6.5565,-6.5321,-6.5285,-6.5251,-6.5222,-6.5589,-6.5589,-6.5821,-6.5823,-6.5825]},{"header":{"parameterUnit":"m.s-1","parameterCategory":1,"la1":30.2991,"la2":30.254,"lo1":-89.0895,"lo2":-89.0444,"dy":0.0017,"dx":0.0017,"nx":28,"ny":28,"refTime":"2024-12-26T03:00:00:Z","depth":0,"parameterNumber":3,"parameterNumberName":"V-component_of_WINDS"},"data":[0,0,0,0,0,0,0,0,0,0,0,0,0,0,0,0,0,0,0,0,0,0,0,0,0,0,0,0,0,0,0,0,0,0,0,0,0,0,0,0,0,0,0,0,0,0,0,0,0,0,0,0,0,0,0,0,0,0,-0.9975,-0.9975,0,-0.9963,-0.9963,-0.9963,-0.991,-0.9909,-0.9908,-0.9907,-0.9896,-0.9897,-0.9897,0,0,0,0,0,0,0,0,0,0,0,0,0,-0.9953,-0.9953,-0.9975,-0.9975,-0.9975,-0.9963,-0.9963,-0.9963,-0.9911,-0.9909,-0.9908,-0.9906,-0.9895,-0.9896,-0.9898,0,0,0,0,0,0,0,0,0,0,0,0,0,-0.9954,-0.9954,-0.9975,-0.9947,-0.9945,-0.9963,-0.9963,-0.9963,-0.9911,-0.9909,-0.9907,-0.9906,-0.9895,-0.9896,-0.9898,-0.9942,0,0,-0.9902,-0.9902,0,0,0,0,0,0,0,0,-0.9954,-0.9955,-0.9951,-0.9949,-0.9946,-0.9936,-0.9951,-0.9956,-0.9911,-0.9924,-0.9907,-0.9905,-0.9911,-0.9911,-0.9912,-0.9942,-0.9941,-0.9902,-0.9902,-0.9903,-0.9903,0,0,0,0,0,0,0,-0.9954,-0.9955,-0.997,-0.9951,-0.9948,-0.9935,-0.9934,-0.9952,-0.9928,-0.9923,-0.9919,-0.9918,-0.9909,-0.9911,-0.9912,-0.9941,-0.9902,-0.9903,-0.9904,-0.9904,-1.0005,-1.0007,0,0,0,0,0,0,-0.9958,-0.9955,-0.9971,-0.997,-0.9946,-0.9937,-0.9935,-0.9941,-0.9927,-0.9924,-0.992,-0.9916,-0.991,-0.991,-0.9911,-0.9962,-0.9903,-0.9904,-0.9905,-1.0003,-1.0005,-1.0007,0,0,0,0,0,0,-0.9957,-0.9959,-0.9971,-0.9961,-0.9962,-0.994,-0.9947,-0.9942,-0.9944,-0.9925,-0.9921,-0.9926,-0.9909,-0.9909,-0.9935,-0.9961,-0.9905,-0.9906,-1.0001,-1.0004,-1.0006,-1.0064,0,0,0,0,0,0,-0.9957,-0.996,-0.9977,-0.9962,-0.9963,-0.9995,-0.9949,-0.9943,-0.9947,-0.9941,-0.993,-0.9927,-0.9907,-0.9933,-0.9936,-0.9962,-0.9907,-0.9998,-1.0002,-1.0006,-1.006,-1.0069,-1.0076,0,0,0,0,0,-0.9956,-0.9994,-0.9978,-0.998,-0.9983,-0.9996,-0.9997,-0.9973,-0.9949,-0.9966,-0.9953,-0.9927,-0.9957,-0.9936,-0.9939,-0.9965,-0.9997,-1.0001,-1.0005,-1.0056,-1.0067,-1.0076,0,0,0,0,0,0,-1.0013,-0.9992,-0.9973,-1.0007,-1.0004,-0.9988,-1.0008,-0.9986,-0.9989,-0.9984,-0.9955,-0.9953,-0.9983,-0.9976,-0.9953,-1.0007,-0.9973,-0.9978,-1.001,-1.002,-1.0028,-1.0029,-0.9908,0,0,0,0,0,-1.0029,-1.0041,-1.0022,-1.0054,-1.0053,-1.0031,-1.0036,-1.0018,-1.0013,-1.0012,-1.0001,-0.9998,-1.0006,-1.0013,-1.002,-1.0058,-1.0055,-1.0078,-1.0086,-1.0093,-1.0098,-1.0117,-1.0127,-1.0022,-1.0022,-1.0022,0,0,-1.0063,-1.0053,-1.0063,-1.0065,-1.006,-1.0073,-1.003,-1.0046,-1.0056,-1.0014,-1.0037,-1.0029,-1.0024,-1.0055,-1.0069,-1.0051,-1.0126,-1.0098,-1.0104,-1.0105,-1.0122,-1.0132,-1.0141,-1.0025,-1.0024,-1.0024,0,0,-1.0132,-1.0125,-1.0151,-1.0146,-1.0139,-1.0124,-1.013,-1.0117,-1.011,-1.0132,-1.0101,-1.0112,-1.0127,-1.0124,-1.0125,-1.0191,-1.0167,-1.0194,-1.0237,-1.0256,-1.0264,-1.0271,-1.0295,-1.0304,-1.0199,-1.0199,-1.0199,0,-1.0175,-1.0194,-1.0167,-1.0184,-1.0186,-1.0148,-1.0173,-1.0171,-1.0167,-1.0169,-1.0149,-1.0167,-1.016,-1.0191,-1.0207,-1.0208,-1.0214,-1.0196,-1.0265,-1.0272,-1.0278,-1.03,-1.0309,-1.0202,-1.0202,-1.0202,-1.0201,0,-1.0247,-1.026,-1.0281,-1.0277,-1.0281,-1.0303,-1.0279,-1.0286,-1.0268,-1.0255,-1.0277,-1.0268,-1.0272,-1.0278,-1.026,-1.0305,-1.0294,-1.027,-1.0235,-1.0292,-1.0312,-1.032,-1.0207,-1.0206,-1.0205,-1.0204,0,0,-1.0352,-1.0332,-1.034,-1.0337,-1.0326,-1.0336,-1.0355,-1.0358,-1.0365,-1.0363,-1.0379,-1.0392,-1.0369,-1.037,-1.0351,-1.0368,-1.042,-1.0341,-1.0341,-1.0356,-1.0469,-1.0487,-1.0497,-1.0404,-1.0405,-1.0407,-1.0469,0,-1.0417,-1.0449,-1.0425,-1.0461,-1.0472,-1.0436,-1.0452,-1.0447,-1.0435,-1.0443,-1.043,-1.044,-1.0409,-1.0409,-1.0424,-1.0411,-1.0442,-1.0406,-1.0418,-1.0419,-1.0421,-1.0508,-1.0528,-1.0587,-1.0477,-1.0478,-1.0479,0,-1.0498,-1.0499,-1.0536,-1.0521,-1.0525,-1.0541,-1.0541,-1.0549,-1.0542,-1.0532,-1.0532,-1.0509,-1.0527,-1.0492,-1.0516,-1.0491,-1.0495,-1.0489,-1.0491,-1.0491,-1.0453,-1.0511,-1.0606,-1.0615,-1.0491,-1.049,-1.0489,0,-1.0571,-1.0581,-1.0604,-1.0603,-1.0586,-1.0598,-1.0592,-1.0583,-1.0586,-1.0586,-1.0588,-1.0591,-1.0592,-1.0595,-1.0573,-1.0549,-1.06,-1.0563,-1.0592,-1.0593,-1.0605,-1.0604,-1.0702,-1.0607,-1.0607,-1.0606,-1.0606,0,-1.0646,-1.0671,-1.0636,-1.0651,-1.0676,-1.0648,-1.0674,-1.0664,-1.0656,-1.0668,-1.0636,-1.0648,-1.0618,-1.0627,-1.0609,-1.0632,-1.0633,-1.0625,-1.062,-1.0628,-1.0629,-1.063,-1.0626,-1.0609,-1.0608,-1.0608,-1.0607,0,-1.0732,-1.071,-1.0733,-1.0715,-1.0711,-1.0731,-1.0715,-1.0728,-1.0713,-1.0728,-1.073,-1.0707,-1.0715,-1.0693,-1.0698,-1.0686,-1.0719,-1.0707,-1.0721,-1.0717,-1.0748,-1.0745,-1.0849,-1.0861,-1.0759,-1.076,-1.0761,0,-1.0782,-1.08,-1.0783,-1.0788,-1.0783,-1.0792,-1.0795,-1.0767,-1.0771,-1.0764,-1.0777,-1.0782,-1.0785,-1.08,-1.0784,-1.0788,-1.0776,-1.0812,-1.0777,-1.0784,-1.0777,-1.0776,-1.0778,-1.082,-1.0821,-1.0822,-1.0823,0,-1.0873,-1.0861,-1.0866,-1.0866,-1.087,-1.0869,-1.0867,-1.0873,-1.0843,-1.0849,-1.0857,-1.0859,-1.0863,-1.0869,-1.0869,-1.0862,-1.0838,-1.0834,-1.0841,-1.085,-1.0857,-1.0853,-1.0741,-1.0832,-1.0831,-1.0831,-1.083,-1.083,-1.0942,-1.0956,-1.0946,-1.0952,-1.0946,-1.0944,-1.0955,-1.0941,-1.0946,-1.0947,-1.093,-1.0942,-1.0933,-1.093,-1.0926,-1.0934,-1.0918,-1.0928,-1.0931,-1.0934,-1.0938,-1.0855,-1.0934,-1.0934,-1.0934,-1.0934,-1.0933,0,-1.1031,-1.1023,-1.1028,-1.1025,-1.1029,-1.1005,-1.1,-1.1006,-1.1016,-1.101,-1.1013,-1.1021,-1.1026,-1.101,-1.1013,-1.1023,-1.1011,-1.1024,-1.1023,-1.1022,-1.0953,-1.0947,-1.1033,-1.1033,-1.1033,-1.1033,-1.1033,-1.1033,-1.1078,-1.1099,-1.1086,-1.1104,-1.1095,-1.1105,-1.1104,-1.1102,-1.1097,-1.1107,-1.1111,-1.11,-1.109,-1.1092,-1.1095,-1.109,-1.1093,-1.111,-1.1101,-1.1037,-1.1027,-1.1018,-1.1012,-1.111,-1.111,-1.1169,-1.117,-1.117]}]]